Wind_Speed
18 17 6 3 4 5 2 7 4 7 5 4 8 10 10 4 4 4 1 17 16 31 26 24 23 22 20 19 18 17 16 16 18 18 19 21 22 22 21 22 22 20 18 16 14 13 12 10 12
18 13 1 2 4 3 6 5 7 3 7 12 11 6 7 4 4 8 7 16 31 31 27 24 22 21 20 19 18 17 16 17 18 19 19 20 21 20 20 19 18 17 16 15 13 12 11 11 12
16 5 3 4 3 3 4 4 7 9 7 5 5 5 5 4 3 8 11 23 27 29 27 24 22 20 19 19 18 17 16 16 18 19 19 20 20 19 19 18 17 15 14 13 12 11 10 11 13
6 5 4 3 4 7 3 12 14 6 2 7 9 7 4 5 6 10 22 25 28 28 25 23 20 19 18 18 19 18 17 17 17 18 19 20 20 19 18 17 16 15 15 14 12 11 11 11 13
2 3 4 4 5 5 6 9 7 2 5 7 2 3 5 4 15 20 27 25 27 27 26 23 20 18 17 18 18 19 17 17 17 18 19 19 20 19 18 17 16 15 14 13 12 11 11 12 14
4 3 3 3 5 6 8 7 4 6 6 5 8 4 1 2 12 17 25 26 23 25 26 23 21 19 18 18 19 19 18 17 17 16 17 19 20 19 18 17 16 15 14 13 13 12 12 13 14
4 4 4 3 5 4 6 8 6 5 5 8 4 4 3 3 6 14 22 24 25 22 27 27 25 22 20 19 19 20 19 18 18 17 17 18 19 20 20 18 17 15 15 15 14 14 13 14 15
4 4 2 4 3 4 7 8 3 6 4 4 3 3 3 5 2 6 14 21 23 22 25 28 30 28 26 24 21 19 19 18 18 17 17 17 19 21 21 20 18 17 16 16 16 15 15 15 16
2 3 4 4 1 1 6 7 10 3 5 4 5 6 5 4 3 4 20 15 17 18 21 23 25 27 26 23 22 22 19 18 18 17 17 17 20 21 22 22 21 19 18 17 16 15 15 16 16
4 4 7 6 1 3 3 4 4 6 9 6 7 9 11 10 11 10 8 14 8 16 25 25 25 26 25 24 23 22 22 21 20 20 19 19 20 22 23 24 23 22 21 19 18 17 16 17 18
4 6 5 6 5 4 2 0 1 3 4 3 4 9 6 4 7 8 11 8 10 3 20 23 25 26 27 26 25 26 25 25 24 23 22 22 22 22 23 24 24 24 23 23 22 20 20 20 19
3 8 7 5 1 3 3 2 3 3 7 6 8 6 4 4 4 4 6 13 10 4 11 20 22 23 26 25 24 24 26 26 27 27 27 27 26 26 26 26 26 27 27 27 25 24 22 22 21
3 4 4 3 4 4 2 3 3 5 9 7 7 8 7 3 2 1 3 8 7 2 15 19 22 21 24 23 21 23 25 27 28 27 29 29 30 29 29 28 27 29 30 30 28 27 25 24 24
3 3 6 5 8 4 4 4 1 7 8 8 6 7 8 5 6 8 7 5 6 5 7 18 22 23 23 26 23 24 23 23 24 26 28 29 30 30 31 29 29 30 29 30 31 31 30 28 27
4 6 8 9 6 6 5 6 6 10 5 8 7 6 7 9 8 12 15 11 10 4 6 18 21 23 25 19 18 16 17 19 20 24 25 27 30 31 31 33 31 33 32 32 32 33 32 31 28
5 5 4 8 7 6 9 8 10 11 5 8 8 8 8 9 11 16 18 15 9 7 6 13 15 15 14 14 13 14 16 16 18 20 20 25 30 32 32 34 36 34 35 35 35 33 31 31 31
6 1 3 8 4 1 4 7 9 10 6 10 9 9 8 8 10 20 21 22 19 19 18 10 17 14 12 9 10 9 9 8 9 12 18 22 24 30 29 30 30 33 37 38 36 36 35 33 34
3 2 4 5 6 3 4 7 7 7 5 9 8 9 9 9 11 13 16 22 20 15 12 9 13 13 11 8 6 6 8 10 12 13 15 16 22 28 25 33 33 25 29 35 38 37 39 37 37
3 3 4 5 6 6 7 8 10 9 7 9 9 9 7 2 3 7 9 8 11 13 14 14 14 10 6 4 6 11 16 20 24 25 25 25 19 23 32 35 41 39 33 33 44 41 36 36 38
2 3 5 4 6 6 8 17 8 7 7 6 10 12 7 2 6 9 23 28 27 24 19 16 13 9 7 7 9 10 14 18 22 24 26 25 26 24 26 36 36 43 43 40 21 28 29 29 38
5 4 4 5 7 6 7 10 7 13 7 16 15 13 10 8 11 9 12 21 20 18 16 13 11 9 6 3 1 5 11 17 22 24 26 28 26 22 19 29 36 40 44 38 29 18 9 14 28
3 4 5 6 6 2 4 5 5 6 7 13 11 10 9 10 8 8 8 13 14 13 15 16 14 11 7 3 4 5 6 9 16 21 23 26 24 22 21 26 31 29 36 33 40 36 18 27 19
5 4 5 4 5 2 5 2 6 4 4 2 6 7 10 9 8 8 9 16 16 16 12 10 5 4 5 9 10 10 13 16 18 22 25 26 27 25 20 21 28 29 25 25 32 37 36 34 30
1 5 7 5 4 1 4 5 5 1 3 1 5 8 8 7 8 7 12 18 20 19 17 13 12 10 11 12 12 14 14 16 18 22 25 27 27 28 20 16 20 26 28 29 28 44 39 32 32
8 7 4 5 4 5 5 5 8 2 2 4 5 7 7 6 7 8 8 11 15 18 16 16 14 13 15 17 19 19 19 19 19 21 22 25 28 26 24 19 19 25 32 32 32 33 37 38 32
2 6 4 3 3 5 5 6 5 6 6 5 6 6 3 4 4 5 5 9 14 14 17 15 14 15 15 16 18 21 21 25 26 25 24 24 22 25 25 24 23 26 27 23 23 29 36 35 36
2 2 5 3 2 2 4 2 4 5 2 5 5 1 5 4 2 3 3 5 7 9 10 6 9 12 15 18 21 24 27 28 28 27 28 28 24 22 23 26 28 27 27 25 23 24 28 29 31
5 2 3 3 2 4 4 4 5 7 2 4 4 4 6 6 7 5 5 9 13 13 12 8 11 12 16 21 24 26 28 32 33 31 28 26 30 22 23 25 29 30 28 28 24 22 26 26 26
4 4 2 1 5 6 3 5 6 7 7 7 7 8 6 6 3 4 5 12 14 12 11 7 10 15 20 25 29 29 28 29 33 32 29 26 28 24 23 26 30 31 29 24 21 19 18 19 18
8 9 5 4 7 4 4 8 6 11 10 7 5 4 5 4 3 4 7 14 14 11 4 7 11 16 19 24 27 27 27 28 28 30 29 28 28 28 27 27 29 30 27 23 16 12 10 11 11
Wind_Direction
327 330 321 115 43 68 268 264 267 4 56 339 87 94 103 89 67 153 309 192 180 159 159 161 159 154 151 147 142 139 134 134 142 143 142 141 141 141 140 141 142 143 144 142 138 137 139 140 138
334 341 82 91 81 43 291 271 352 146 142 133 105 111 60 79 96 121 123 160 164 159 160 162 163 160 157 153 149 147 143 142 147 149 147 145 145 145 145 145 146 149 151 150 146 144 148 150 147
331 338 71 87 103 156 242 278 319 307 180 153 106 65 92 117 86 132 159 161 164 163 164 164 167 164 162 159 155 155 152 151 152 154 154 153 153 151 151 152 154 156 157 157 156 155 158 160 156
333 2 22 78 255 260 255 289 258 262 53 49 114 79 66 164 157 154 158 160 166 168 170 169 172 170 169 167 164 162 162 161 159 160 162 161 161 160 159 160 161 162 161 163 167 168 168 170 166
4 59 45 329 275 282 303 285 294 70 78 357 157 110 109 59 138 147 155 159 166 171 174 173 176 176 176 174 172 169 171 170 167 167 169 170 170 169 168 169 169 170 172 175 176 177 176 177 175
17 97 62 265 272 315 293 303 31 48 19 58 58 79 99 327 103 162 163 166 169 169 176 178 182 183 181 181 179 177 175 176 175 174 175 176 179 179 179 178 180 182 184 184 184 185 184 183 184
111 81 212 238 270 344 324 310 57 62 29 20 151 77 318 351 63 98 182 177 172 169 172 181 184 187 187 186 185 184 182 182 184 183 183 185 188 189 191 192 193 195 197 195 193 193 193 191 191
113 96 254 238 253 290 319 358 357 46 34 306 100 108 225 243 119 64 108 182 180 178 181 184 187 189 188 186 187 190 188 191 191 192 193 194 196 198 200 202 205 208 207 205 203 201 201 200 198
102 75 234 245 285 291 323 22 334 296 49 9 352 48 336 201 347 138 98 150 182 195 194 193 192 190 188 187 187 188 194 196 199 201 203 202 205 206 207 211 213 216 217 215 214 212 211 209 208
124 147 221 207 232 303 302 39 326 13 350 349 358 357 22 50 36 28 6 113 171 213 210 205 199 199 191 188 190 192 192 199 203 206 208 212 213 214 215 216 219 222 223 223 224 222 221 221 218
195 210 221 264 254 220 216 70 292 51 342 272 300 308 329 33 37 34 359 36 55 36 209 210 208 205 196 196 195 196 199 200 206 211 214 218 221 220 221 224 223 226 227 228 229 228 228 228 227
252 244 218 237 298 296 216 185 315 206 238 249 274 256 297 15 22 4 350 333 51 130 192 208 213 211 199 204 202 207 205 208 210 214 218 219 219 221 223 226 229 229 230 233 234 235 236 236 234
197 318 282 298 327 296 311 291 252 257 269 277 285 315 264 236 228 135 350 326 347 54 197 202 207 206 201 210 210 212 215 220 222 221 222 223 222 223 225 228 229 233 234 237 240 241 242 241 240
288 272 311 279 286 236 235 274 103 256 274 297 285 272 271 303 288 302 298 283 311 87 183 201 204 203 198 207 216 219 224 230 235 236 236 235 232 229 226 229 233 236 237 240 242 245 244 245 244
291 353 342 310 289 257 104 326 248 259 304 287 289 271 228 222 234 235 250 252 272 278 174 176 188 199 205 207 205 213 221 237 248 252 251 247 242 238 235 230 231 238 241 242 247 250 250 246 246
11 42 11 289 323 325 124 253 269 270 284 253 250 251 259 256 225 229 233 233 218 236 201 202 191 184 188 194 199 209 218 222 245 252 259 256 249 246 241 234 232 232 237 242 244 248 246 243 243
4 224 238 313 327 126 171 247 258 302 311 284 286 283 272 263 268 254 233 214 222 233 244 205 195 201 210 197 188 201 211 243 265 266 269 260 251 254 244 242 243 240 232 233 238 243 239 235 238
249 330 299 289 279 12 254 254 277 271 251 254 263 269 263 268 264 278 263 250 247 252 241 234 200 197 193 199 224 250 278 287 292 307 314 304 273 246 242 247 239 244 240 228 231 232 238 233 233
179 213 256 268 321 360 335 307 308 290 302 306 297 290 299 288 79 72 74 93 113 106 102 98 97 93 84 49 360 336 328 321 318 318 318 312 301 272 256 255 248 246 244 242 235 230 226 231 233
5 10 331 294 344 21 323 300 286 293 299 288 287 287 199 91 88 47 84 90 90 94 95 90 84 74 50 27 10 355 340 321 318 314 315 312 309 290 274 267 243 238 242 244 257 237 218 218 223
11 88 337 293 335 350 357 330 356 321 344 24 49 52 42 65 74 72 79 91 96 99 101 102 104 108 108 94 6 319 308 304 312 325 330 322 316 312 284 266 259 248 245 244 242 253 229 252 219
20 309 322 317 6 268 69 285 304 306 23 45 61 62 48 40 33 57 64 62 69 90 107 108 106 101 96 67 355 331 325 320 320 327 335 340 330 314 298 259 253 249 246 245 238 243 246 261 254
233 297 289 260 239 89 330 115 264 356 60 74 88 76 76 61 47 29 35 45 71 97 97 97 73 5 326 315 308 309 304 302 311 320 330 339 338 330 308 279 262 256 251 263 269 253 255 243 236
283 12 338 12 113 123 207 190 283 276 275 2 342 68 56 47 66 42 49 54 52 48 41 38 19 5 351 329 309 298 297 301 310 318 321 329 334 333 310 283 269 260 260 261 256 253 253 236 223
58 47 343 360 8 212 253 11 246 312 51 136 64 53 52 38 41 31 24 28 41 41 25 29 20 18 3 350 337 308 292 293 295 303 310 320 326 329 317 283 276 257 251 247 249 234 234 232 242
215 147 157 259 233 253 287 236 240 200 207 168 132 117 83 40 54 78 54 31 29 26 19 18 20 12 2 352 345 341 335 313 300 293 294 305 312 322 321 295 286 281 262 257 256 256 257 253 247
266 271 187 182 268 8 238 311 356 210 251 139 139 68 356 352 152 122 81 41 19 13 13 34 356 348 347 337 332 327 321 323 323 319 300 295 296 306 319 310 292 285 283 279 274 272 266 263 256
149 217 356 359 274 265 279 238 237 222 152 182 214 230 262 309 318 339 3 353 347 345 350 340 343 343 337 331 331 324 318 311 308 316 316 306 302 294 301 314 314 294 285 284 283 277 276 272 269
329 326 318 213 157 200 252 242 217 204 208 220 244 240 256 300 333 342 333 341 327 311 319 321 328 334 330 328 325 320 316 315 308 307 314 312 302 295 300 305 315 313 288 287 279 277 279 273 265
246 257 155 132 280 230 191 256 245 276 294 285 244 258 283 52 22 337 320 313 312 329 315 324 323 320 325 329 324 315 313 311 314 305 304 313 309 295 296 305 310 311 295 282 278 261 246 225 205
Height
766 765 763 766 794 801 807 785 753 753 752 742 737 746 755 752 762 786 751 750 752 755 758 762 764 765 767 769 770 772 773 776 779 781 782 783 785 787 789 790 792 792 794 796 798 799 800 801 801
765 763 763 772 807 822 812 771 766 743 742 735 738 743 749 762 745 749 752 753 753 754 758 762 764 766 767 768 770 771 774 776 778 781 783 784 786 789 790 792 793 794 795 796 798 799 800 801 802
766 765 771 791 813 819 807 769 763 745 737 735 743 738 745 754 743 745 746 750 754 756 758 761 764 766 767 768 769 771 774 777 778 781 783 785 787 789 790 791 793 794 796 797 798 798 799 800 801
767 767 774 798 804 788 778 766 753 747 732 733 738 756 743 741 742 742 746 749 753 757 758 760 764 765 766 768 769 771 774 776 778 780 782 784 786 788 790 792 793 794 795 796 797 798 798 799 800
769 777 804 805 800 780 763 754 744 749 746 747 738 756 752 743 743 743 745 749 751 755 757 760 763 765 766 768 769 770 774 776 778 779 781 784 786 788 790 792 793 793 794 794 795 797 798 798 799
781 783 813 816 797 779 763 750 750 755 754 750 752 755 754 745 746 748 746 747 750 752 755 757 761 763 765 768 769 772 773 776 778 781 782 784 786 788 790 791 793 793 793 793 794 795 796 797 798
783 797 809 799 795 782 768 752 758 761 758 755 746 765 754 745 745 747 748 749 749 751 752 754 757 760 763 766 768 771 772 775 778 780 781 783 785 787 789 790 792 792 792 792 792 793 794 795 796
779 791 797 794 795 792 768 758 756 757 757 742 743 767 765 747 744 744 746 750 754 755 753 752 752 755 758 762 766 771 772 775 777 779 780 782 784 785 788 790 791 792 792 792 792 792 792 793 794
770 803 809 796 784 782 769 770 756 750 754 748 748 751 748 747 747 743 747 751 754 756 756 756 758 757 760 763 765 768 771 774 777 778 779 781 783 785 786 788 790 791 792 793 793 793 792 793 793
785 806 795 776 772 776 769 768 766 764 764 759 753 748 750 749 748 747 746 753 753 753 753 754 756 759 760 762 764 767 769 772 774 777 779 781 782 783 785 786 788 790 791 792 792 792 792 792 792
777 793 777 770 766 764 766 765 761 767 772 762 761 755 750 750 749 748 747 749 751 750 752 754 756 756 758 759 761 764 766 768 771 773 776 778 780 782 783 785 786 788 789 790 791 791 791 791 792
781 770 767 764 762 762 766 762 765 761 763 754 753 751 750 751 750 749 748 747 750 748 749 752 756 758 759 759 760 763 765 766 767 768 770 773 775 778 780 782 785 787 788 789 790 790 791 791 791
777 767 762 761 761 763 760 765 764 762 753 750 750 749 749 748 748 748 747 747 748 749 749 751 753 755 759 760 762 763 765 767 767 767 768 769 771 773 776 779 781 784 786 787 789 789 789 788 789
770 768 767 761 761 762 765 763 758 756 749 750 748 749 748 747 745 744 745 746 747 749 749 751 752 754 756 758 760 761 763 765 767 768 768 769 770 771 774 776 779 781 783 785 786 786 786 787 786
767 775 769 761 760 760 758 769 767 751 748 752 748 747 746 744 742 742 742 743 745 747 748 749 751 752 755 757 758 760 761 764 766 768 768 769 770 772 774 773 775 778 779 781 783 783 783 783 785
776 781 799 771 765 762 764 792 762 750 754 753 748 746 744 741 738 736 737 739 741 744 746 749 751 752 754 755 756 757 759 761 763 765 766 768 768 768 771 771 770 769 773 775 777 779 779 779 780
799 808 797 787 766 762 768 782 762 751 755 757 751 747 743 740 736 734 733 734 736 738 741 744 747 750 750 751 753 755 756 758 760 762 763 764 765 767 766 767 772 770 764 765 768 772 772 770 771
805 799 795 794 773 768 773 778 768 757 753 753 751 748 744 740 733 729 730 732 733 736 739 742 744 745 748 750 753 754 755 757 759 759 760 760 760 762 760 759 765 765 763 760 759 761 766 766 761
782 789 796 786 773 774 779 777 765 754 751 751 746 744 742 733 730 728 726 727 732 735 738 743 746 749 750 751 753 753 752 753 754 753 756 758 759 759 758 756 753 756 756 755 752 752 759 763 761
780 789 797 785 774 778 782 771 759 754 750 746 743 738 738 736 736 735 732 733 735 738 742 744 746 748 749 750 751 752 752 752 752 753 754 754 754 752 750 747 743 746 747 748 751 757 751 751 760
790 795 796 796 784 780 779 783 767 752 751 743 739 743 747 746 742 740 738 738 741 742 744 746 747 748 750 751 752 752 752 751 750 750 750 749 748 745 743 742 739 741 740 740 742 755 733 750 757
798 782 784 790 801 817 789 822 782 768 767 756 752 752 754 753 750 747 745 743 745 746 747 747 748 749 750 750 750 750 749 748 747 746 746 746 744 741 739 738 737 734 737 734 736 744 731 745 744
792 779 787 788 801 806 803 819 792 770 769 766 756 754 752 751 755 757 754 752 751 749 750 749 750 749 748 746 746 745 744 744 743 742 741 740 739 737 734 732 734 733 729 730 733 733 736 736 736
776 788 794 800 809 824 800 807 797 786 772 767 761 755 754 752 749 754 755 755 754 754 752 751 752 752 752 750 747 746 744 742 740 738 737 736 735 733 730 729 729 729 726 724 720 726 730 723 723
788 813 836 827 829 823 798 801 794 774 770 767 765 761 758 758 755 757 758 757 757 754 757 754 755 753 752 751 749 746 743 740 738 735 733 732 730 729 727 726 724 724 721 718 719 721 726 719 707
790 807 837 825 834 820 796 808 786 769 765 762 761 763 762 760 759 759 759 759 756 757 755 754 755 753 750 749 747 744 741 738 735 731 729 727 726 725 723 721 719 718 717 717 720 721 719 712 711
792 804 795 810 810 821 807 782 772 769 765 764 764 761 759 757 757 756 755 755 755 755 755 752 751 750 748 747 745 742 739 736 733 729 726 723 721 719 718 715 713 711 710 710 711 710 710 709 708
788 787 815 825 826 824 809 791 791 776 765 761 764 763 758 757 755 753 752 752 751 751 750 749 746 746 745 745 742 739 736 732 729 726 721 718 716 714 713 711 708 705 705 704 704 705 705 703 702
800 807 803 812 816 823 818 802 771 768 765 766 762 760 758 758 756 757 755 752 750 748 746 744 743 741 740 739 737 735 731 727 724 721 717 713 711 710 708 707 705 701 699 699 700 702 700 698 696
789 795 804 838 813 823 816 784 755 755 759 760 757 752 752 755 756 755 754 750 748 746 745 743 741 739 737 735 732 730 726 723 720 715 712 709 706 705 704 702 699 697 693 693 693 694 694 694 695